Location: *
(44.7084°S, 175.3390°W)
Time: 12:43:08
(UTC+00:00)

Daily predictions for brighter satellites

Satellite Brightness Start Highest point End
(mag) Time Altitude Azimuth Time Altitude Azimuth Time Altitude Azimuth
Atlas Centaur 2 4.4 15:27:05 26° NNE 15:27:05 26° NNE 15:32:20 10° ENE
CZ-4C R/B 4.3 15:35:01 23° SSE 15:35:01 23° SSE 15:37:32 10° SSE
Cosmos 1980 Rocket 4.2 15:32:43 23° ENE 15:33:44 24° ENE 15:38:10 10° SE
USA 229 DEB 4.5 15:35:51 46° ESE 15:35:51 46° ESE 15:41:05 10° ENE
USA 229 4.5 15:35:56 46° ESE 15:35:56 46° ESE 15:41:11 10° ENE
Okean O Rocket 4.3 15:35:02 10° ENE 15:37:18 17° ESE 15:37:18 17° ESE
NOSS 3-1 (A) 4.4 15:47:29 41° ESE 15:47:29 41° ESE 15:52:10 10° ENE
Cosmos 1697 Rocket 3.8 16:02:54 38° SE 16:02:54 38° SE 16:06:20 10° SSE
USA 234 4.1 15:56:06 10° E 16:02:09 40° SSE 16:02:51 39° S
CZ-4B R/B 4.3 16:04:13 10° NE 16:09:29 43° ESE 16:12:45 22° S
Lacrosse 5 rocket 4.2 16:16:13 11° SE 16:16:13 11° SE 16:16:24 10° SE
Cosmos 1953 4.5 16:14:22 25° ESE 16:14:36 25° ESE 16:17:57 10° NE
Cosmos 1937 Rocket 4.4 16:15:37 42° SE 16:16:18 44° ESE 16:21:15 10° NE
SJ 16-02 3.4 16:30:57 19° NNE 16:30:57 19° NNE 16:32:13 10° NNE
NOAA 6 4.0 16:25:46 10° NNE 16:30:45 79° ENE 16:30:45 79° ENE
Cosmos 2360 4.1 16:33:53 85° SW 16:33:53 85° SW 16:39:37 10° SSE
Meteor 1-21 4.2 16:35:57 71° SSW 16:35:57 71° SSW 16:41:12 10° S
MOS 1-B 4.2 16:30:23 10° N 16:36:01 74° WNW 16:36:01 74° WNW
ATLAS CENTAUR R/B 4.3 16:35:12 10° S 16:36:42 11° SSE 16:38:20 10° SE
Cosmos 1536 Rocket 4.0 16:38:13 10° N 16:42:30 59° E 16:46:51 10° SSE
Cosmos 1726 3.1 16:43:50 45° ENE 16:43:50 45° ENE 16:46:56 10° NNE
H-2A R/B 4.5 16:43:49 10° NNE 16:45:35 26° NNE 16:45:35 26° NNE
NOSS 2-3 (E) 4.3 16:48:22 48° SW 16:50:19 85° NW 16:55:42 10° NNE
CZ-4B DEB 4.4 16:45:07 10° N 16:49:50 53° NW 16:49:50 53° NW
Cosmos 1627 Rocket 4.4 16:46:21 10° N 16:52:35 88° W 16:58:59 10° S
Cosmos 2263 Rocket 2.9 16:49:22 21° S 16:53:06 54° ESE 16:58:42 10° NE
Envisat 3.1 16:51:25 10° NNE 16:56:31 75° ESE 17:01:07 13° S
In-Cosmos 22 4.3 16:57:20 10° N 17:02:51 73° E 17:08:17 10° SSE
Cosmos 1461 2.6 17:03:00 85° ENE 17:03:00 85° ENE 17:06:48 10° NE
Cosmos 858 Rocket 4.4 17:03:38 43° SW 17:05:20 73° WNW 17:10:34 10° NNE
NOSS 3-1 (C) 3.7 17:06:25 40° WNW 17:06:31 40° WNW 17:11:33 10° N
ATLAS 5 CENTAUR R/B 4.1 17:01:16 10° N 17:07:48 38° ENE 17:13:58 10° SE
Cosmos 1437 4.3 17:05:51 10° NNE 17:08:38 34° E 17:11:28 10° SSE
Meteor 2-10 3.9 17:06:37 28° SSW 17:09:24 67° W 17:14:27 10° N
Cosmos 2208 Rocket 4.2 17:04:24 10° NNW 17:09:35 72° ENE 17:14:50 10° SSE
USA 267 3.2 17:03:15 10° SE 17:09:54 86° SW 17:14:36 21° NW
Cosmos 990 Rocket 4.3 17:10:27 44° WNW 17:10:29 44° WNW 17:15:28 10° N
Cosmos 1814 Rocket 4.3 17:06:36 10° N 17:11:53 71° ENE 17:17:16 10° SSE
NOSS 2-3 (D) 4.3 17:10:05 34° SW 17:12:56 65° WNW 17:18:12 10° NNE
Okean O Rocket 1.7 17:09:27 10° N 17:13:51 57° W 17:14:45 47° SW
Atlas Centaur 2 4.3 17:09:40 17° NW 17:14:20 28° N 17:20:43 10° NE
Cosmos 1980 Rocket 2.2 17:14:37 29° WNW 17:17:20 54° WSW 17:22:53 10° SSE
Cosmos 1763 Rocket 3.7 17:15:52 36° WNW 17:17:31 48° WSW 17:22:40 10° S
CORIOLIS 4.1 17:13:34 10° NNE 17:19:01 88° WNW 17:24:32 10° SSW
Cosmos 2369 4.4 17:20:46 33° SW 17:20:54 33° SW 17:26:04 10° S
CZ-4C R/B 4.2 17:20:13 17° SSW 17:21:18 18° SSW 17:25:33 10° SSE
ARGOS Delta rocket 4.1 17:16:39 10° NNE 17:21:38 73° ESE 17:26:24 10° S
USA 229 DEB 4.1 17:23:20 31° WSW 17:25:29 39° WNW 17:31:24 10° N
USA 229 4.1 17:23:25 31° WSW 17:25:36 39° WNW 17:31:32 10° N
Cosmos 1898 Rocket 4.1 17:26:06 33° W 17:26:46 35° WNW 17:31:33 10° NNW
Feng Yun 1-1 Rocket 4.2 17:26:07 10° NNE 17:31:37 87° ESE 17:37:21 10° SSW
KORONAS-FOTON 3.7 17:31:28 10° N 17:35:17 87° W 17:39:13 10° S
PSLV R/B 4.1 17:31:51 10° SSE 17:36:04 75° ENE 17:40:15 10° N
Cosmos 2026 Rocket 4.2 17:30:55 10° NNW 17:36:45 44° WSW 17:42:45 10° S
NOSS 3-1 (A) 3.8 17:34:58 26° WSW 17:37:34 39° WNW 17:42:36 10° N
Aureole 3 Rocket 3.3 17:36:46 31° SW 17:38:03 42° W 17:42:32 10° NNW
Cosmos 1939 Rocket 4.0 17:35:53 10° NE 17:39:47 46° ESE 17:43:48 10° S
Cosmos 1570 Rocket 4.1 17:35:01 10° NW 17:40:17 54° WSW 17:45:37 10° SSE
Cosmos 540 Rocket 3.5 17:35:17 10° NW 17:40:25 58° WSW 17:45:37 10° SSE
Cosmos 2278 4.3 17:38:08 24° W 17:40:36 33° SW 17:45:46 10° S
SMAP 3.4 17:37:17 10° N 17:41:44 42° W 17:45:30 14° SSW
SL-16 R/B 2.4 17:36:23 10° NNW 17:42:04 76° ENE 17:47:48 10° SSE
CZ-4 R/B 2.7 17:39:03 10° NE 17:43:03 43° ESE 17:47:08 10° S
Cosmos 1689 Rocket 2.3 17:40:30 10° S 17:43:28 45° WSW 17:46:24 10° NNW
FengYun 1-2 T 4.2 17:38:23 10° NNE 17:43:59 83° WNW 17:49:43 10° SSW
USA 234 3.3 17:38:08 10° NE 17:44:44 89° SE 17:50:12 16° SW
Cosmos 1697 Rocket 3.9 17:44:40 21° SW 17:45:14 22° SW 17:49:33 10° S
Cosmos 1626 3.2 17:41:42 10° NNE 17:45:20 48° E 17:49:00 10° SSE
Cosmos 841 Rocket 3.7 17:41:23 10° NW 17:46:31 50° WSW 17:51:45 10° SSE
Okean-O 3.0 17:44:12 10° NNE 17:48:38 67° ESE 17:53:08 10° S
Cosmos 2228 2.9 17:45:31 10° S 17:49:53 87° W 17:54:10 10° N
CZ-4B R/B 4.0 17:45:18 10° NNW 17:50:08 30° W 17:54:39 12° SW
Cosmos 372 Rocket 3.9 17:45:25 12° SSW 17:50:15 63° WNW 17:55:18 10° N
Cosmos 1953 3.3 17:50:07 25° WSW 17:50:57 27° W 17:54:20 10° NNW
SL-14 R/B 4.1 17:47:41 10° N 17:51:32 53° E 17:55:24 10° SSE
Orbus 7S? 3.4 17:49:36 13° NW 17:52:19 86° SW 17:58:21 10° SE
Lacrosse 5 rocket 3.2 17:51:51 14° SSW 17:53:02 15° S 17:55:29 10° SSE
CZ-2D R/B 4.1 17:50:56 10° NNE 17:54:45 54° ESE 17:58:39 10° S
YAOGAN 6 3.5 17:52:44 10° NNW 17:55:50 27° W 17:57:05 22° WSW
Cosmos 2098 Rocket 4.2 17:50:42 10° N 17:56:15 77° E 18:03:11 10° S
Cosmos 1908 3.4 17:52:37 10° SSW 17:56:24 49° W 18:00:07 10° N
Meteor 2-19 Rocket 4.4 17:50:40 10° NNW 17:56:53 78° W 18:03:09 10° S
Cosmos 2150 Rocket 4.0 17:51:55 10° SSW 17:57:23 79° WNW 18:02:41 10° NNE
ATLAS 2AS CENTAUR R/B 4.4 17:53:06 10° SSW 17:57:39 20° SSE 18:02:23 10° ESE
Cosmos 1125 Rocket 3.8 17:52:36 10° SSW 17:57:56 69° ESE 18:03:09 10° NNE
Meteor 2-15 4.4 17:54:42 10° S 18:00:58 81° W 18:07:08 10° N
Cosmos 1300 3.4 17:57:46 10° S 18:01:38 57° E 18:05:25 10° NNE
CZ-4 R/B 4.4 17:59:27 10° NNE 18:03:36 88° W 18:07:49 10° SSW
Meteor 1-24 Rocket 3.7 18:01:31 10° N 18:06:54 81° E 18:12:18 10° SSE
ASTEX 1 3.6 18:02:16 10° NNW 18:07:01 48° W 18:11:52 10° SSW
Cosmos 1818 3.6 18:03:20 10° NNW 18:08:44 87° ENE 18:14:12 10° SE
COSMO-SKYMED 1 2.5 18:04:29 10° S 18:08:55 71° WSW 18:13:16 10° NNW
Cosmos 1892 Rocket 3.6 18:05:01 10° N 18:09:30 85° W 18:14:02 10° S
ADEOS Rocket 2.9 18:05:46 10° S 18:11:11 54° WSW 18:16:39 10° NW
Cosmos 1655 Rocket 4.1 18:07:21 10° NNW 18:13:27 53° WSW 18:19:37 10° S
BREEZE-M DEB (TANK) 4.0 18:12:42 14° WSW 18:16:08 56° NNW 18:29:40 10° NE
ATLAS CENTAUR R/B 2.8 18:12:19 10° SSW 18:16:55 41° SE 18:21:30 10° ENE
Cosmos 1726 4.1 18:18:23 11° W 18:18:23 11° W 18:19:18 10° WNW
YAOGAN 1 2.7 18:14:53 10° NNE 18:19:15 86° E 18:23:42 10° SSW
Cosmos 2266 Rocket 4.0 18:14:05 10° NNW 18:20:20 62° W 18:26:33 10° S
Cosmos 1356 Rocket 3.4 18:17:55 10° SSW 18:22:05 69° W 18:26:17 10° N
Cosmos 2322 Rocket 2.2 18:16:29 10° NW 18:22:10 66° WSW 18:27:56 10° SSE
Meteor 2-5 Rocket 3.8 18:16:40 10° NNW 18:22:11 59° WSW 18:27:44 10° S
Cosmos 1674 3.9 18:21:50 10° WNW 18:24:47 21° WSW 18:27:46 10° SSW
USA 186 4.4 18:25:01 10° ENE 18:26:30 14° ESE 18:28:02 10° SSE
Aureole 3 4.3 18:24:17 10° SSW 18:28:17 29° W 18:31:33 10° NNW
Cosmos 2058 Rocket 3.1 18:24:24 10° SSW 18:28:51 67° W 18:33:17 10° N
Helios 1A Rocket 4.1 18:25:34 10° NNW 18:28:54 24° W 18:32:17 10° SW
Cosmos 2315 Rocket 4.1 18:30:10 10° SSW 18:36:25 65° W 18:42:34 10° N
Cosmos 2263 Rocket 3.3 18:32:05 10° SW 18:36:39 25° WNW 18:41:11 10° NNW
ARGOS 4.2 18:33:00 10° NE 18:38:09 47° ESE 18:43:21 10° S
USA 116 3.2 18:38:28 10° S 18:41:39 67° WSW 18:44:57 10° NNW
Cosmos 2219 Rocket 4.0 18:39:23 10° N 18:44:37 39° ENE 18:49:53 10° SE
